Location: Los Angeles
(34.0542°N, 118.2411°W)
Time: 04:34:03
(UTC-07:00)

Daily predictions for brighter satellites

Satellite Brightness Start Highest point End
(mag) Time Altitude Azimuth Time Altitude Azimuth Time Altitude Azimuth
Cosmos 2082 Rocket 4.1 02:31:00 25° NE 02:31:00 25° NE 02:33:31 10° NE
CZ-2D R/B 4.0 02:30:17 10° NNE 02:32:42 26° NE 02:32:42 26° NE
Lacrosse 5 rocket 4.2 03:02:17 16° NE 03:02:17 16° NE 03:03:10 10° NE
USA 215 4.1 02:53:30 10° ENE 02:58:38 41° ESE 02:58:38 41° ESE
ARIANE 5 R/B 4.0 02:56:01 10° NNE 02:59:08 34° NE 02:59:08 34° NE
Cosmos 1833 Rocket 3.8 03:12:16 39° N 03:12:16 39° N 03:15:49 10° NNE
ADEOS II 4.0 03:07:46 10° NE 03:11:47 22° E 03:12:22 22° ESE
Resurs 1-4 Rocket 3.5 03:16:12 10° N 03:19:00 31° N 03:19:00 31° N
SL-16 R/B 3.5 03:33:40 35° NW 03:33:40 35° NW 03:37:18 10° NNW
Cosmos 2142 Rocket 4.5 03:32:49 74° N 03:32:49 74° N 03:38:23 10° N
Cosmos 1066 Rocket 4.4 03:39:07 64° N 03:39:07 64° N 03:43:43 10° N
Lacrosse 4 Rocket 3.5 03:41:09 10° NNW 03:42:46 22° NNW 03:42:46 22° NNW
OAO 3 Rocket 3.9 03:51:59 46° E 03:51:59 46° E 03:55:20 10° E
Hubble Space Telescope 3.3 04:01:48 12° SE 04:01:48 12° SE 04:02:14 10° SE
Cosmos 1726 Rocket 3.8 03:58:01 10° N 04:02:03 65° ENE 04:02:03 65° ENE
Cosmos 1428 Rocket 4.3 03:56:57 10° N 04:03:09 84° W 04:04:59 48° S
Cosmos 2208 Rocket 4.4 04:04:53 49° NW 04:04:53 49° NW 04:09:33 10° N
Cosmos 1980 Rocket 2.1 04:03:53 10° NNW 04:09:31 83° ENE 04:15:09 10° SSE
Cosmos 2082 Rocket 3.7 04:12:51 22° NW 04:12:51 22° NW 04:16:47 10° N
BREEZE-M R/B 3.4 04:13:06 47° N 04:13:06 47° N 04:17:17 10° NE
Cosmos 1697 Rocket 3.4 04:07:47 10° NNW 04:11:36 38° WNW 04:11:36 38° WNW
Meteor 1-22 Rocket 4.2 04:07:56 10° N 04:13:56 88° E 04:17:38 23° S
Cosmos 1763 Rocket 3.4 04:12:55 59° S 04:13:56 86° ESE 04:19:15 10° NNE
CZ-2D R/B 4.0 04:11:36 10° NNW 04:14:02 17° NW 04:14:02 17° NW
Cosmos 2058 Rocket 3.3 04:11:27 10° N 04:15:50 67° E 04:17:45 33° SSE
SL-16 R/B 4.1 04:13:22 10° N 04:18:20 31° ENE 04:23:17 10° ESE
SL-8 R/B 3.7 04:16:36 32° NW 04:18:48 79° NE 04:23:38 10° SE
Cosmos 1842 3.2 04:21:37 77° NNW 04:21:37 77° NNW 04:25:20 10° N
Cosmos 1898 Rocket 3.4 04:16:49 10° NNW 04:22:02 87° ENE 04:27:17 10° SSE
ATLAS 3B R/B 2.9 04:19:39 31° SSW 04:23:24 73° ESE 04:30:24 10° NE
NOSS 3-2 (A) 4.2 04:21:05 22° S 04:24:29 45° ESE 04:30:22 10° NE
Cosmos 724 4.3 04:25:39 47° WSW 04:27:07 62° WNW 04:32:51 10° NNE
Cosmos 1606 Rocket 4.4 04:25:10 10° NNW 04:28:03 34° NW 04:28:03 34° NW
SEDSat Delta rocket 4.0 04:29:14 40° WSW 04:31:41 69° S 04:38:27 10° E
Cosmos 1626 Rocket 3.9 04:29:21 25° SSE 04:31:45 60° E 04:36:00 10° NNE
Cosmos 1867 4.0 04:28:11 10° NW 04:39:39 - S 04:32:33 39° W
Cosmos 2322 Rocket 3.5 04:30:46 10° N 04:36:04 41° ENE 04:41:19 10° SE
Cosmos 1892 Rocket 4.4 04:36:34 34° WNW 04:36:34 34° WNW 04:40:14 10° NNW
Cosmos 1937 Rocket 3.4 04:31:45 10° NNW 04:36:58 84° ENE 04:42:06 10° SSE
Cosmos 2228 3.0 04:34:15 10° NNW 04:38:27 57° W 04:39:15 48° SW
Lacrosse 5 rocket 3.8 04:37:57 11° NW 04:38:39 12° NW 04:40:07 10° NNW
ARIANE 5 R/B 4.3 04:36:42 10° NNW 04:39:28 16° WNW 04:39:28 16° WNW
Cosmos 858 Rocket 4.3 04:34:50 10° NNW 04:40:02 78° WSW 04:45:12 10° S
Cosmos 1805 3.1 04:38:38 10° NNW 04:42:30 67° W 04:43:47 39° SSW
USA 215 3.8 04:36:27 10° NNE 04:42:37 46° NW 04:46:00 26° W
BREEZE-M DEB (TANK) 4.0 04:31:52 10° NW 04:42:57 53° NNE 04:46:18 10° ESE
Cosmos 1766 4.0 04:41:34 10° NNW 04:44:26 33° WNW 04:44:26 33° WNW
SJ 16-02 3.9 04:43:33 10° NNE 04:47:05 23° ENE 04:50:35 10° ESE
Cosmos 1758 3.5 04:44:51 10° N 04:48:49 70° E 04:52:46 10° SSE
Cosmos 1378 3.6 04:46:57 15° S 04:49:55 61° E 04:53:37 10° NNE
ADEOS II 2.7 04:46:44 10° N 04:51:31 37° WNW 04:53:20 28° WSW
Cosmos 1814 Rocket 4.5 04:50:52 31° WSW 04:52:33 40° WNW 04:57:24 10° N
Cosmos 2150 Rocket 4.1 04:47:06 10° NNW 04:52:37 85° ENE 04:58:03 10° SSE
Timation 2 Rocket 4.2 04:52:44 27° SW 04:55:48 49° WNW 05:01:35 10° N
Cosmos 990 Rocket 3.9 04:51:53 10° NNW 04:56:58 61° WSW 05:02:02 10° S
CZ-4B R/B 4.3 04:53:07 10° NNE 04:58:26 46° E 05:03:38 10° S
Cosmos 2298 Rocket 3.9 04:53:18 10° NNW 04:58:37 74° WSW 05:03:53 10° S
CZ-4B R/B 2.8 04:58:01 10° N 05:02:15 76° WNW 05:05:32 15° SSW
Centaur D-1AR AC-39 4.1 05:00:20 13° SSW 05:02:20 15° S 05:04:57 10° SSE
Okean O Rocket 2.0 05:03:22 10° NNE 05:07:42 65° E 05:12:00 10° S
Meteor 1-28 Rocket 4.4 05:05:31 10° SSE 05:09:03 44° ENE 05:12:38 10° N
USA 161 3.1 05:07:30 10° SSE 05:10:21 40° ENE 05:13:14 10° N
CZ-4B DEB 4.4 05:08:57 10° NNE 05:14:31 80° ESE 05:20:02 10° S
CZ-3C R/B 3.2 05:14:43 10° SSW 05:17:41 19° SSE 05:24:55 10° ESE
Cosmos 292 Rocket 4.3 05:15:06 18° SW 05:18:20 40° WNW 05:22:52 10° N
USA 238 4.2 05:14:24 17° WSW 05:19:16 42° NW 05:25:50 10° NNE
USA 238 DEB 4.3 05:14:25 17° WSW 05:19:17 42° NW 05:25:50 10° NNE
Cosmos 1825 Rocket 3.9 05:17:12 10° S 05:21:28 66° E 05:25:46 10° NNE
Meteor PRIRODA 3.6 05:22:33 10° N 05:26:15 83° WNW 05:29:57 10° SSW
Cosmos 2266 Rocket 4.5 05:22:02 10° NNW 05:27:31 37° W 05:33:04 10° SSW
Cosmos 1733 3.8 05:28:00 10° NNW 05:31:34 36° W 05:35:07 10° SSW
OAO 3 Rocket 3.7 05:29:49 11° W 05:33:56 40° SSW 05:38:23 10° SE
CRYOSAT 2 4.3 05:29:26 10° S 05:34:14 67° W 05:39:04 10° N
S3M 4.3 05:28:12 10° S 05:34:18 71° E 05:40:23 10° N
Hubble Space Telescope 2.7 05:37:10 10° SW 05:39:15 14° SSW 05:41:26 10° S
DNEPR-1 R/B 4.4 05:37:15 11° WSW 05:40:51 33° NW 05:44:52 10° N
Cosmos 1470 3.3 05:37:53 10° NNW 05:41:36 38° W 05:45:15 10° SSW
Cosmos 1953 Rocket 3.7 05:41:02 10° S 05:45:31 88° E 05:50:00 10° N
IRS-1C Rocket 4.1 05:40:32 10° NNE 05:45:49 86° WNW 05:51:04 10° SSW
Cosmos 44 3.7 05:41:32 10° NW 05:46:39 51° WSW 05:51:52 10° S
Cosmos 2292 Rocket 3.6 05:43:57 10° N 05:47:36 59° E 05:50:38 10° SSE
Delta 2 Rocket 4.4 05:42:22 10° SW 05:47:53 56° SSE 05:52:59 10° E
Meteor 1-24 Rocket 4.1 05:43:18 10° S 05:48:33 64° E 05:53:47 10° NNE
Cosmos 2360 Rocket 2.5 05:45:25 10° NNW 05:51:03 76° ENE 05:56:40 10° SSE
IDEFIX/ARIANE 42P 2.7 05:48:12 10° NNE 05:53:26 82° ESE 05:58:40 10° S
Cosmos 1812 Rocket 4.4 05:50:40 10° NNW 05:54:35 30° W 05:58:27 10° SSW
NOSS 3-2 (C) 3.7 05:50:38 10° SW 05:56:17 50° NW 06:02:30 10° NNE
